"Pseudo-MPEC" for C0VMRA5

Created 2024 Dec 1 4:31:04 UT using Find_Orb

Click here for an explanation of pseudo-MPECs

 
 Astrometry: 
     C0VMRA5* C2024 11 29.35855805 03 10.562+19 07 08.80   ~BT9H 21.87GVNEOCPV00
     C0VMRA5  C2024 11 29.36416605 03 09.745+19 07 16.07   ~BT9H       VNEOCPV00
     C0VMRA5  C2024 11 29.36977805 03 08.878+19 07 23.74   ~BT9H       VNEOCPV00
     C0VMRA5 KC2024 11 29.40721505 03 03.301+19 08 13.63   ~BTAV 21.39GVNEOCPV06
     C0VMRA5 KC2024 11 29.41275005 03 02.495+19 08 20.69   ~BTAV 21.53GVNEOCPV06
     C0VMRA5 KC2024 11 29.41828605 03 01.696+19 08 28.10   ~BTAV 21.43GVNEOCPV06
     C0VMRA5 KC2024 11 29.42382505 03 00.889+19 08 35.45   ~BTAV 21.57GVNEOCPV06
     C0VMRA5 1C2024 11 29.93531005 02 02.368+19 19 38.20   ~BTNH 20.7 GXNEOCP033
     C0VMRA5 1C2024 11 29.93891005 02 01.918+19 19 42.70   ~BTNH 20.7 GXNEOCP033
     C0VMRA5 1C2024 11 29.94251005 02 01.388+19 19 47.50   ~BTNH 20.8 GXNEOCP033

Station data:
(033) Karl Schwarzschild Observatory, Tautenburg  (N50.980139 E11.711240)
   Germany.  Observer B. Stecklum. 1.34-m f/3 Schmidt + CCD.
(V00) Kitt Peak-Bok  (N31.963125 W111.600190)  US/Arizona.  Observers T. A.
   Pruyne, B. M. Africano, E. J. Christensen, G. A. Farneth, D. C. Fuls, A.
   R. Gibbs, A. D. Grauer, H. Gröller, J. A. Johnson, R. A. Kowalski, S. M.
   Larson, G. J. Leonard, D. Rankin, R. L. Seaman, F. C. Shelly, K. W.
   Wierzchoś. 2.25-m reflector + 4x4K mosaic CCD.
(V06) Catalina Sky Survey-Kuiper  (N32.416871 W110.732550)  US/Arizona.
   Observers T. A. Pruyne, B. M. Africano, E. J. Christensen, G. A. Farneth,
   D. C. Fuls, A. R. Gibbs, A. D. Grauer, H. Gröller, J. A. Johnson, R. A.
   Kowalski, S. M. Larson, G. J. Leonard, D. Rankin, R. L. Seaman, F. C.
   Shelly, K. W. Wierzchoś. 1.55-m reflector + CCD.

Orbital elements:  C0VMRA5
   Perihelion 2024 Oct 9.03027 +/- 2.67 TT =  0:43:35 (JD 2460592.53027)
Epoch 2024 Nov 30.0 TT = JDT 2460644.5   Earth MOID: 0.0120   Ju: 0.8123
M  11.51567071 +/- 6                Ve: 0.0622   Ma: 0.0277      AutoNEOCP
n   0.22158417 +/- 0.106            Peri.  269.56814 +/- 2.5
a   2.70464467 +/- 0.864            Node    85.10711 +/- 2.2
e   0.7100535 +/- 0.103             Incl.    1.52492 +/- 0.17
P   4.44801                H 25.03  G  0.15   U 11.2
q 0.78420206 +/- 0.0291    Q 4.62508728 +/- 1.76          (J2000 ecliptic)
From 10 observations 2024 Nov. 29 (14.0 hr); mean residual 0".16
Residuals in arcseconds: 
241129 V00  .09-  .23+    241129 V06  .02-  .12-    241129 033  .38+  .10-    
241129 V00  .24+  .17-    241129 V06  .07+  .00     241129 033  .31-  .01+    
241129 V00  .16-  .13-    241129 V06  .00   .07+    
241129 V06  .05-  .14+    241129 033  .06-  .09+    

Ephemerides (geocentric):
Date (UTC) HH   RA             Dec           delta  r     elong  mag " sig PA
---- --------  ------------   ------------  ------ ------ -----  --- --------
2024 12 01 05  04 59 43.877   +19 45 04.66  .15194 1.1370 172.7 21.7 29.0 128
2024 12 01 06  04 59 39.714   +19 45 49.38  .15235 1.1374 172.8 21.7 30.4 128
2024 12 01 07  04 59 35.570   +19 46 33.86  .15277 1.1378 172.8 21.7 31.8 128
2024 12 01 08  04 59 31.446   +19 47 18.09  .15319 1.1382 172.9 21.7 33.3 128
2024 12 01 09  04 59 27.342   +19 48 02.10  .15361 1.1387 172.9 21.7 34.7 128
2024 12 01 10  04 59 23.258   +19 48 45.86  .15402 1.1391 173.0 21.7 36.2 128
2024 12 01 11  04 59 19.193   +19 49 29.40  .15444 1.1395 173.1 21.7 37.7 128
2024 12 01 12  04 59 15.147   +19 50 12.70  .15486 1.1399 173.1 21.7 39.2 128
2024 12 01 13  04 59 11.121   +19 50 55.78  .15528 1.1404 173.2 21.7 40.8 128
2024 12 01 14  04 59 07.113   +19 51 38.62  .15570 1.1408 173.2 21.7 42.3 128
2024 12 01 15  04 59 03.125   +19 52 21.25  .15612 1.1412 173.3 21.7 43.9 128
2024 12 01 16  04 58 59.155   +19 53 03.64  .15654 1.1416 173.3 21.8 45.5 128
2024 12 01 17  04 58 55.204   +19 53 45.82  .15696 1.1421 173.4 21.8 47.1 128
2024 12 01 18  04 58 51.271   +19 54 27.77  .15738 1.1425 173.5 21.8 48.8 128
2024 12 01 19  04 58 47.357   +19 55 09.51  .15780 1.1429 173.5 21.8 50.4 128
2024 12 01 20  04 58 43.461   +19 55 51.03  .15821 1.1433 173.6 21.8 52.1 128
2024 12 01 21  04 58 39.584   +19 56 32.33  .15863 1.1438 173.6 21.8 53.8 128
2024 12 01 22  04 58 35.724   +19 57 13.42  .15905 1.1442 173.7 21.8 55.5 128
2024 12 01 23  04 58 31.883   +19 57 54.29  .15947 1.1446 173.7 21.8 57.2 128
2024 12 02 00  04 58 28.059   +19 58 34.96  .15990 1.1450 173.8 21.8 59.0 128
2024 12 02 01  04 58 24.253   +19 59 15.42  .16032 1.1455 173.8 21.8 60.8 128
2024 12 02 02  04 58 20.465   +19 59 55.67  .16074 1.1459 173.9 21.8 62.5 128
2024 12 02 03  04 58 16.694   +20 00 35.71  .16116 1.1463 174.0 21.8 64.3 127
2024 12 02 04  04 58 12.941   +20 01 15.55  .16158 1.1467 174.0 21.8 66.1 127
2024 12 02 05  04 58 09.205   +20 01 55.19  .16200 1.1472 174.1 21.8 68.0 127
2024 12 02 06  04 58 05.486   +20 02 34.62  .16242 1.1476 174.1 21.8 69.8 127
2024 12 02 07  04 58 01.784   +20 03 13.86  .16284 1.1480 174.2 21.8 71.7 127
2024 12 02 08  04 57 58.100   +20 03 52.90  .16326 1.1485 174.2 21.8 73.5 127
2024 12 02 09  04 57 54.432   +20 04 31.74  .16368 1.1489 174.3 21.8 75.4 127
2024 12 02 10  04 57 50.780   +20 05 10.39  .16411 1.1493 174.3 21.8 77.3 127
2024 12 02 11  04 57 47.146   +20 05 48.84  .16453 1.1497 174.4 21.8 79.2 127
2024 12 02 12  04 57 43.528   +20 06 27.10  .16495 1.1502 174.5 21.8 81.1 127
2024 12 02 13  04 57 39.927   +20 07 05.17  .16537 1.1506 174.5 21.8 83.1 127
2024 12 02 14  04 57 36.341   +20 07 43.05  .16580 1.1510 174.6 21.8 85.0 127
2024 12 02 15  04 57 32.773   +20 08 20.74  .16622 1.1514 174.6 21.8 87.0 127
2024 12 02 16  04 57 29.220   +20 08 58.24  .16664 1.1519 174.7 21.8 88.9 127
2024 12 02 17  04 57 25.683   +20 09 35.56  .16706 1.1523 174.7 21.8 90.9 127
2024 12 02 18  04 57 22.163   +20 10 12.69  .16749 1.1527 174.8 21.9 92.9 127
2024 12 02 19  04 57 18.658   +20 10 49.65  .16791 1.1532 174.8 21.9 94.9 127
2024 12 02 20  04 57 15.169   +20 11 26.42  .16833 1.1536 174.9 21.9 96.9 127
2024 12 02 21  04 57 11.695   +20 12 03.01  .16876 1.1540 174.9 21.9 98.9 127
2024 12 02 22  04 57 08.238   +20 12 39.42  .16918 1.1544 175.0 21.9  101 127
2024 12 02 23  04 57 04.795   +20 13 15.65  .16961 1.1549 175.0 21.9  103 127
2024 12 03 00  04 57 01.369   +20 13 51.71  .17003 1.1553 175.1 21.9  105 127
2024 12 03 01  04 56 57.957   +20 14 27.59  .17045 1.1557 175.2 21.9  107 127
2024 12 03 02  04 56 54.561   +20 15 03.30  .17088 1.1562 175.2 21.9  109 127
2024 12 03 03  04 56 51.180   +20 15 38.84  .17130 1.1566 175.3 21.9  111 127
2024 12 03 04  04 56 47.814   +20 16 14.21  .17173 1.1570 175.3 21.9  113 127